Regional Weather Roundup
Issued by NWS

Home | Current Version | Previous Version | Graphics & Text | Print | Product List | Glossary On
Versions: 1 2 3 4 5 6 7 8 9 10 11 12 13 14 15 16 17 18 19 20 21 22 23 24 25 26 27
000
ASUS45 KBOU 212307
RWRCO

WEATHER ROUNDUP FOR COLORADO
NATIONAL WEATHER SERVICE DENVER/BOULDER CO
500 PM MDT THU SEP 21 2017

NOTE: "FAIR" INDICATES FEW OR NO CLOUDS BELOW 12000 FEET WITH NO
SIGNIFICANT WEATHER AND/OR OBSTRUCTIONS TO VISIBILITY.

COZ001>005-013-030-031-220000-
...NORTHWEST COLORADO...

CITY           SKY/WX    TMP DP  RH WIND       PRES   REMARKS
CRAIG          FAIR      78  15   9 SW26G39   29.73F
HAYDEN         FAIR      77  20  12 SW24G33   29.76F
MEEKER         FAIR      76  18  11 SW25G38   29.76F
RABBIT EARS PA FAIR      57  19  23 S8G31     30.07F
STEAMBOAT SPGS FAIR      76  19  12 S16G25    29.78F
WALDEN         FAIR      70  14  11 SW22G30   29.90S
$$

COZ006>008-011-220000-
...WEST CENTRAL VALLEYS...

CITY           SKY/WX    TMP DP  RH WIND       PRES   REMARKS
GRAND JUNCTION FAIR      84  21  10 S22G31    29.68F
MONTROSE       FAIR      80  20  10 SW28G40   29.76F
EAGLE          FAIR      79  23  12 W22G29    29.80F
RIFLE          FAIR      82  18   9 S20G31    29.72F
DELTA          FAIR      85  20   9 S20G30    29.74F
NUCLA          FAIR      79  18  10 S25G40    29.83F
$$

COZ017>023-064>068-220000-
...SOUTHWEST COLORADO...

CITY           SKY/WX    TMP DP  RH WIND       PRES   REMARKS
DURANGO        FAIR      76  23  14 S18G29    29.94F
CORTEZ         FAIR      81  19  10 SW17      29.85F
PAGOSA SPRINGS FAIR      74  14  10 SW16G31   30.03S
TELLURIDE      FAIR      64  20  18 SE18G30   30.06S
WOLF CREEK PAS NOT AVBL
$$

COZ009-010-012-014-032>034-037-058>063-220000-
...CENTRAL COLORADO...

CITY           SKY/WX    TMP DP  RH WIND       PRES   REMARKS
ASPEN          FAIR      76  19  11 S16G28    29.87F
BUENA VISTA    FAIR      75  13   9 S9G24     29.92S
COPPER MTN     FAIR      59   5  11 S13G31    30.21S
BERTHOUD PASS  FAIR      52  43  71 W17G24    30.25S
COTTONWOOD PAS FAIR      70   5   8 SW17G28   30.07S
GUNNISON       FAIR      74  26  16 S17G26    29.91S
KREMMLING      FAIR      81   5   5 W13G22    29.85S
LEADVILLE      FAIR      64   8  11 SW10G24   30.04F
MONARCH PASS   FAIR      54  19  26 SW36G44   30.33S
SALIDA         FAIR      78  16   9 S17G26    29.98S
SUNLIGHT       FAIR      57  21  24 S18G36    30.10F
WILKERSON PASS FAIR      59  14  17 SW9G23    30.20F
$$

COZ069>075-220000-
...SAN LUIS VALLEY/SANGRE DE CRISTO MOUNTAINS...

CITY           SKY/WX    TMP DP  RH WIND       PRES   REMARKS
ALAMOSA        FAIR      74  21  13 SW22G31   29.98F
DEL NORTE      FAIR      72  24  16 W21G29    30.01S
LA VETA PASS   FAIR      63  21  20 S21G39    30.25F
SAGUACHE       FAIR      72  25  17 SW14G26   30.00R
$$

COZ035-036-038>040-220000-
...NORTHERN COLORADO FRONT RANGE...

CITY           SKY/WX    TMP DP  RH WIND       PRES   REMARKS
DENVER INTL AP FAIR      89  22   8 S18G25    29.66F
DMNS CITY PARK   N/A     87  24  10 S14G24    29.64F
AURORA         MOSUNNY   87  22   9 S18G29    29.68F
FRONT RANGE AP MOSUNNY   91  23   8 S16       29.69F
ERIE MUNI ARPT FAIR      89  19   7 NE8       29.68F
BOULDER MUN AP FAIR      88  30  12 N9        29.66F
CENTENNIAL     FAIR      85  20   9 S20G31    29.71S
BROOMFIELD     MOSUNNY   90  27  10 N12       29.68F
FORT COLLINS   NOT AVBL
LONGMONT       FAIR      90  28  10 N6        29.66F
$$

COZ041-046-047-076>085-087-088-220000-
...PIKES PEAK/PALMER DIVIDE AND SOUTHERN FOOTHILLS...

CITY           SKY/WX    TMP DP  RH WIND       PRES   REMARKS
COLO. SPRINGS  FAIR      83  25  12 S17G24    29.81F
A. F. ACADEMY  FAIR      81  20  10 S18       29.81F
SCHRIEVER AFB  FAIR      82  22  11 S13       29.82F
CHEYENNE MTN   FAIR      74  21  13 S13G23    29.81S
ELLICOTT         N/A    N/A N/A N/A SW17      29.80F
FALCON         FAIR      80  20  10 S21       29.87S
FORT CARSON    FAIR      84  20   9 S21       29.77F
LIMON          FAIR      86  22   9 S18       29.74F
MONUMENT HILL  FAIR      77  23  13 S17G26    29.86F
CANON CITY     SUNNY     88  30  12 E9        29.74F
WALSENBURG     FAIR      84  25  11 SW16G26   29.84F
TRINIDAD       FAIR      85  29  13 SW18      29.83R
$$

COZ042>045-048>051-090-091-220000-
...NORTHEAST COLORADO...

CITY           SKY/WX    TMP DP  RH WIND       PRES   REMARKS
GREELEY ARPT   FAIR      89  28  11 E8        29.63F
AKRON          FAIR      90  19   7 S16G26    29.68S
BURLINGTON     FAIR      92  29  10 S23G35    29.70S
WRAY           FAIR      95  28   9 S16G23    29.63F
YUMA           FAIR      88  28  11 S12       29.65S
STERLING       FAIR      88  41  19 NE9       29.61F
HOLYOKE        NOT AVBL
FORT MORGAN    FAIR      91  22   8 SE14      29.64F
$$

COZ086-089-092>099-220000-
...SOUTHEAST COLORADO...

CITY           SKY/WX    TMP DP  RH WIND       PRES   REMARKS
PUEBLO         FAIR      91  25   9 SW15G24   29.69S
LA JUNTA       FAIR      93  27   9 S12       29.68F
LAMAR          FAIR      93  35  13 S24G35    29.66S
SPRINGFIELD      N/A     88  36  15 S26G37    29.77F
$$




USA.gov is the U.S. government's official web portal to all federal, state and local government web resources and services.